This is the latest recevied weather packets stored in our database for station/object EA4BCR. If no packets are shown the sender has not sent any weather packets the latest 10 day(s).
| Time | Temp. | Humidity | Pressure | Rain* | Wind** | Luminosity | Snow |
|---|---|---|---|---|---|---|---|
| 1777959653 | 10.56° C | 99% | 1013.8 hPa | - | - | - | - |
| 1777959053 | 10.56° C | 96% | 1013.8 hPa | - | - | - | - |
| 1777958453 | 10.56° C | 99% | 1013.8 hPa | - | - | - | - |
| 1777957853 | 10° C | 10% | - | - | - | - | - |
| 1777957253 | 8.89° C | 10% | - | - | - | - | - |
| 1777956653 | 10° C | 99% | 1013.8 hPa | - | - | - | - |
| 1777956053 | 10° C | 97% | 1013.7 hPa | - | - | - | - |
| 1777955453 | 10° C | 97% | 1013.8 hPa | - | - | - | - |
| 1777954853 | 10° C | 94% | 1013.7 hPa | - | - | - | - |
| 1777954253 | 10° C | 98% | 1013.8 hPa | - | - | - | - |
| 1777953653 | 9.44° C | 97% | 1014 hPa | - | - | - | - |
| 1777953054 | 10° C | 95% | 1014 hPa | - | - | - | - |
| 1777952453 | 9.44° C | 96% | 1014.2 hPa | - | - | - | - |
| 1777951853 | 9.44° C | 97% | 1014.2 hPa | - | - | - | - |
| 1777951253 | 9.44° C | 94% | 1014.1 hPa | - | - | - | - |
| 1777950653 | 9.44° C | 96% | 1014.3 hPa | - | - | - | - |
| 1777950057 | 9.44° C | 97% | 1014.4 hPa | - | - | - | - |
| 1777949453 | 9.44° C | 92% | 1014.5 hPa | - | - | - | - |
| 1777948853 | 9.44° C | 92% | 1014.5 hPa | - | - | - | - |
| 1777948253 | 8.89° C | 93% | 1014.5 hPa | - | - | - | - |
| 1777947653 | 8.89° C | 94% | 1014.6 hPa | - | - | - | - |
| 1777947053 | 8.89° C | 94% | 1014.5 hPa | - | - | - | - |
| 1777946453 | 8.89° C | 95% | 1014.5 hPa | - | - | - | - |
| 1777945860 | 8.89° C | 94% | 1014.7 hPa | - | - | - | - |
| 1777945253 | 8.33° C | 93% | 1014.9 hPa | - | - | - | - |
* Rain since midnight (hover to see other rain measurements)
** Current wind speed in m/s (hover to see current wind gust speed)